Regional Weather Roundup
Issued by NWS Midland/Odessa, TX

Skip options and go directly to product.
Home | Oldest Version | Next Version | Current Version | All | Text Only | Save Text | Print | Product List | Glossary On

Skip product version selection by date and time.   
243
ASUS44 KMAF 220610
RWRMAF
MIDLAND AREA WEATHER ROUNDUP
NATIONAL WEATHER SERVICE MIDLAND TX
1200 AM CST SAT NOV 22 2014

...IN SOUTHWEST TEXAS AND SOUTHEAST NEW MEXICO...

CITY           SKY/WX    TMP DP  RH WIND       PRES   REMARKS
ALPINE         MOCLDY    44  37  77 W3        30.05S
ANDREWS        CLOUDY    51  49  92 CALM      30.01R
ARTESIA        NOT AVBL
BIG SPRING     MOCLDY    59  52  79 E9        30.01F
CARLSBAD       CLOUDY    50  43  77 S3        29.98S
DRYDEN           N/A     56  55  97 N5        29.94S
FORT STOCKTON  CLOUDY    58  54  86 S18G25    29.96S
GUAD PASS      CLOUDY    50  33  52 NE13      30.04S
HOBBS          CLOUDY    54  50  87 SE9       30.02F
MARFA          MOCLDY    43  34  70 N6        30.02R WCI  39
MIDLAND AIRPK  CLOUDY    59  54  83 SE5       29.99S
MIDLAND INTL   CLOUDY    57  54  89 SE7       29.98F
ODESSA         MOCLDY    55  52  89 SE6       29.98F
PECOS          MOCLDY    47  44  90 SE6       29.95F
PRESIDIO       FAIR      59  46  63 NE9       29.91S
SEMINOLE       CLOUDY    52  45  76 CALM      30.03S
SNYDER         PTCLDY    58  51  78 SE7       30.02S
WINK           MOCLDY    53  49  86 NE5       29.97R
$$
...OTHER STATIONS IN TEXAS...

CITY           SKY/WX    TMP DP  RH WIND       PRES   REMARKS
ABILENE        PTCLDY    61  56  83 SE9       30.01F
AMARILLO       MOCLDY    40  37  89 S8        30.04S WCI  34
AUSTIN         MOCLDY    66  64  93 SE10      30.06F
BROWNSVILLE    CLOUDY    72  69  90 SE10      30.03F
CORPUS CHRISTI MOCLDY    71  66  84 SE10      30.05F
DALLAS FTW     LGT RAIN  60  60 100 SE15      30.08S
DEL RIO        LGT RAIN  63  61  93 E3        29.95S
EL PASO        CLOUDY    58  23  26 NE8       29.98S
HOUSTON INT    MOCLDY    62  60  93 E10       30.15F
LUBBOCK        MOCLDY    48  42  80 SE7       30.02S
SAN ANGELO     MOCLDY    60  54  80 E7        29.98F
SAN ANTONIO    CLOUDY    69  66  90 SE15      30.05F
WACO           CLOUDY    66  62  87 SE16G22   30.08R
WICHITA FALLS  NOT AVBL
$$
...OTHER LOCATIONS IN NEW MEXICO...

CITY           SKY/WX    TMP DP  RH WIND       PRES   REMARKS
ALAMAGORDO     CLOUDY    45  30  57 MISG      30.00S
ALBUQUERQUE    PTCLDY    39  20  46 CALM      30.08S
CANNON AFB     CLOUDY    49  21  33 W5        30.04S
CLOVIS         CLOUDY    46  27  46 SW3       30.04R
HOLLOMAN AFB   MOCLDY    47  28  48 VRB5      29.99R
ROSWELL        CLOUDY    45  32  60 W5        30.01R
RUIDOSO        CLOUDY    39  21  48 W5        30.10F WCI  36
SANTA FE       CLEAR     31  18  58 N10       30.09R WCI  22
TRUTH OR CONSE MOCLDY    45  23  42 N7        30.02F
TUCUMCARI      MOCLDY    45  25  45 W10       30.00S WCI  40
$$

USA.gov is the U.S. government's official web portal to all federal, state and local government web resources and services.